Location: The Saddle
(36.8333°N, 80.3417°W)
Time: 06:45:29
(UTC-05:00)

Vanguard 2 Rocket - Pass Details

Date: 15 December 2023
Orbit: 555 x 3309 km, 32.9° (Epoch: 02 March)

Event Time Altitude Azimuth Distance (km) Brightness Sun altitude
Rises 15:19:30 0° 274° (W) 5,733 11.6 16.0°
Reaches altitude 10° 15:22:44 10° 272° (W) 5,024 11.4 15.6°
Maximum altitude 15:38:47 73° 192° (SSW) 3,236 10.1 13.3°
Drops below altitude 10° 15:59:04 10° 113° (ESE) 6,135 10.9 10.3°
Sets 16:03:31 0° 111° (ESE) 6,998 11.1 9.6°
